Regional Weather Roundup
Issued by NWS

Home | Current Version | Previous Version | Graphics & Text | Print | Product List | Glossary Off
Versions: 1 2 3 4 5 6 7 8 9 10 11 12 13 14 15 16 17 18 19 20 21 22 23 24 25 26 27 28 29 30 31 32 33 34 35 36 37 38 39 40 41 42 43 44 45 46 47 48 49 50

000
ASUS43 KTOP 251808
RWRKS

WEATHER ROUNDUP FOR KANSAS
NATIONAL WEATHER SERVICE GOODLAND KS
100 PM CDT MON SEP 25 2017

NOTE:  "FAIR" INDICATES FEW OR NO CLOUDS BELOW 12,000 FEET WITH NO
SIGNIFICANT WEATHER AND/OR OBSTRUCTIONS TO VISIBILITY.

KSZ001>006-013>018-027>032-041>047-251900-
NORTHWEST KANSAS

CITY           SKY/WX    TMP DP  RH WIND       PRES   REMARKS
GOODLAND       CLOUDY    51  48  89 N15       30.02F
6HR MIN TEMP:  48; 6HR MAX TEMP:  52; 6HR PCP:  0.23;

HAYS           CLOUDY    57  56  96 N16       29.94F FOG
HILL CITY      LGT RAIN  55  54  96 N13       30.01R VSB 1
6HR MIN TEMP:  53; 6HR MAX TEMP:  57; 6HR PCP:  0.25;

RUSSELL        RAIN      60  59  96 N15       29.94F FOG
6HR MIN TEMP:  59; 6HR MAX TEMP:  64;

$$

KSZ061>065-074>080-084>089-251900-
SOUTHWEST KANSAS

CITY           SKY/WX    TMP DP  RH WIND       PRES   REMARKS
DODGE CITY     CLOUDY    58  57  97 N14       29.96R FOG
6HR MIN TEMP:  58; 6HR MAX TEMP:  67; 6HR PCP:  0.58;

ELKHART          N/A     56  56 100 N10         N/A
GARDEN CITY    CLOUDY    55  53  93 N20       29.98R FOG
6HR MIN TEMP:  55; 6HR MAX TEMP:  59; 6HR PCP:  0.01;

GREAT BEND     RAIN      63  61  94 N9        29.91F
LIBERAL        CLOUDY    60  58  92 NE15      29.96R
PRATT          TSTM      63  61  94 E10       29.93R
6HR MIN TEMP:  63; 6HR MAX TEMP:  70; 6HR PCP:  1.43;

$$

KSZ066>073-081>083-090>101-251900-
SOUTHEAST KANSAS

CITY           SKY/WX    TMP DP  RH WIND       PRES   REMARKS
CHANUTE        SUNNY     85  67  54 S16       29.93F
6HR MIN TEMP:  67; 6HR MAX TEMP:  85;

COFFEYVILLE    SUNNY     85  67  54 S15       29.91F
6HR MIN TEMP:  67; 6HR MAX TEMP:  85;

HUTCHINSON     TSTM      65  64  97 NW12      29.91R FOG
6HR MIN TEMP:  65; 6HR MAX TEMP:  74; 6HR PCP:  0.30;

MEDICINE LODGE   N/A     65  63  93 N14G23    29.91R
NEWTON         CLOUDY    74  66  76 CALM      29.91F
PARSONS        SUNNY     84  66  54 S9G17     29.94S
6HR MIN TEMP:  68; 6HR MAX TEMP:  86; 6HR PCP: TRACE;

WICHITA INTL   CLOUDY    85  66  53 S17       29.86F
6HR MIN TEMP:  69; 6HR MAX TEMP:  85; 6HR PCP: TRACE;

WICHITA JABRA  CLOUDY    84  64  50 S18       29.88F
6HR MIN TEMP:  70; 6HR MAX TEMP:  84;

WICHITA MCCONL CLOUDY    86  61  43 S17G25    29.87F
WINFIELD       MOSUNNY   87  65  47 S18G26    29.89F
6HR MIN TEMP:  71; 6HR MAX TEMP:  87;

$$

KSZ007>012-019>026-033>040-048>060-102>105-251900-
NORTHEAST KANSAS

CITY           SKY/WX    TMP DP  RH WIND       PRES   REMARKS
CONCORDIA      HVY RAIN  62  62 100 SE5       29.97R FOG
6HR MIN TEMP:  60; 6HR MAX TEMP:  63; 6HR PCP:  1.41;

EMPORIA        PTSUNNY   84  64  50 S16       29.90F
6HR MIN TEMP:  67; 6HR MAX TEMP:  85;

LAWRENCE       SUNNY     86  68  54 S13G18    29.91F
6HR MIN TEMP:  65; 6HR MAX TEMP:  86;

MANHATTAN      LGT RAIN  75  68  78 N3        29.89S
6HR MIN TEMP:  72; 6HR MAX TEMP:  83; 6HR PCP:  0.01;

MARYSVILLE     LGT RAIN  68  64  88 NW7       29.94S
OLATHE IND     SUNNY     85  67  54 S14G20    29.93F
6HR MIN TEMP:  66; 6HR MAX TEMP:  85;

OLATHE EXE     SUNNY     83  68  60 S10       29.93F
6HR MIN TEMP:  64; 6HR MAX TEMP:  83;

SALINA         TSTM      67  64  90 N14       29.93S
6HR MIN TEMP:  67; 6HR MAX TEMP:  76; 6HR PCP:  0.29;

TOPEKA BILLARD MOSUNNY   86  68  54 S9        29.89F
6HR MIN TEMP:  68; 6HR MAX TEMP:  86;

TOPEKA FORBES  MOSUNNY   87  67  51 S7G21     29.90F
6HR MIN TEMP:  70; 6HR MAX TEMP:  88;

$$




USA.gov is the U.S. government's official web portal to all federal, state and local government web resources and services.